Flag for Saudi Arabia Weather past 2 weeks in Qatif, Saudi Arabia

Now
73 °F

Clear.


Feels Like: 76 °F
Forecast: 72 / 87 °F
Wind: 10 mph from Northwest

Location: King Fahd International Airport

Current Time: Apr 19, 2015 at 12:50:28 AM

Latest Report: Apr 19, 2015 at 12:00 AM


Visibility: 10 mi

Pressure: 29.92 "Hg

Humidity: 27%

Dew point: 37 °F

Location of QatifLocation

Historic Weather in Qatif — Graph

°F

Qatif temperature yesterday

Maximum temperature yesterday: 90 °F (at 1:00 PM)
Minimum temperature yesterday: 73 °F (at 4:00 AM)
Average temperature yesterday: 80 °F

Past Weeks' High & Low Weather Summary

 TemperatureHumidityPressure
High108 °F (Apr 12, 1:00 PM)65% (Apr 5, 5:00 AM)30.04 "Hg (Apr 5, 5:00 AM)
Low63 °F (Apr 4, 2:00 AM)5% (Apr 12, 1:00 PM)29.65 "Hg (Apr 4, 5:00 PM)
Average81 °F29%29.86 "Hg
* Reported Apr 3 11:00 PM — Apr 18 11:00 PM, Qatif, Weather by CustomWeather, © 2015

Note: Actual official high and low records may vary slightly from our data, if they occured in-between our weather recording intervals... More about our weather records

Advertising

Qatif weather history for previous 24 hours

 ConditionsComfort  
Time TempWeatherWind HumidityBarometerVisibility
11:00 PM
Sat, Apr 18
73 °FClear.8 mph31%29.95 "Hg10 mi
10:00 PM73 °FClear.6 mph29%29.95 "Hg10 mi
9:00 PM77 °FClear.7 mph28%29.92 "Hg10 mi
8:00 PM77 °FClear.9 mph26%29.92 "Hg10 mi
7:00 PM79 °FClear.10 mph23%29.92 "Hg5 mi
6:00 PM81 °FClear.20 mph18%29.89 "Hg4 mi
5:00 PM82 °FSunny.23 mph16%29.86 "Hg3 mi
4:00 PM84 °FSunny.25 mph18%29.86 "Hg2 mi
3:00 PM86 °FSunny.25 mph17%29.86 "Hg2 mi
2:00 PM88 °FSunny.25 mph18%29.86 "Hg1 mi
1:00 PM90 °FSunny.25 mph18%29.89 "Hg2 mi
12:00 PM88 °FSunny.22 mph21%29.92 "Hg2 mi
11:00 AM86 °FSunny.26 mph24%29.92 "Hg2 mi
10:00 AM86 °FSunny.24 mph24%29.92 "Hg2 mi
9:00 AM84 °FSunny.25 mph27%29.92 "Hg1 mi
8:00 AM82 °FLow level haze.23 mph30%29.92 "Hg3 mi
7:00 AM77 °FSunny.16 mph39%29.89 "Hg10 mi
6:00 AM73 °FSunny.14 mph44%29.89 "Hg10 mi
5:00 AM73 °FClear.12 mph44%29.89 "Hg10 mi
4:00 AM73 °FClear.12 mph44%29.89 "Hg10 mi
3:00 AM75 °FClear.9 mph44%29.89 "Hg10 mi
2:00 AM75 °FClear.7 mph47%29.89 "Hg10 mi
1:00 AM75 °FClear.8 mph47%29.89 "Hg10 mi
12:00 AM77 °FClear.16 mph42%29.89 "Hg4 mi
Weather by CustomWeather, © 2015

See weather overviewHow to use our weather pages